This is the latest recevied weather packets stored in our database for station/object KA3ZXO. If no packets are shown the sender has not sent any weather packets the latest 10 day(s).
| Time | Temp. | Humidity | Pressure | Rain* | Wind** | Luminosity | Snow |
|---|---|---|---|---|---|---|---|
| 1777555010 | 13.89° C | 89% | 1008.4 hPa | 0 mm | - | 38 W/m² | - |
| 1777554410 | 13.89° C | 91% | 1008.3 hPa | 0 mm | - | 29 W/m² | - |
| 1777553809 | 13.33° C | 95% | 1008.5 hPa | 0 mm | - | 28 W/m² | - |
| 1777553207 | 12.78° C | 99% | 1008.4 hPa | 0 mm | - | 23 W/m² | - |
| 1777552603 | 12.78° C | 99% | 1008.5 hPa | 0 mm | - | 20 W/m² | - |
| 1777552002 | 12.78° C | 99% | 1008.3 hPa | 0 mm | - | 19 W/m² | - |
| 1777551397 | 12.78° C | 99% | 1008.4 hPa | 0 mm | - | 18 W/m² | - |
| 1777550797 | 12.78° C | 99% | 1008.3 hPa | 0 mm | - | 16 W/m² | - |
| 1777550195 | 12.78° C | 99% | 1008.4 hPa | 0 mm | - | 22 W/m² | - |
| 1777549593 | 12.78° C | 99% | 1008.2 hPa | 0 mm | - | 31 W/m² | - |
| 1777548993 | 12.78° C | 99% | 1008.3 hPa | 0 mm | - | 36 W/m² | - |
| 1777548393 | 12.22° C | 99% | 1008.1 hPa | 0 mm | - | 35 W/m² | - |
| 1777547791 | 12.22° C | 99% | 1007.8 hPa | 0 mm | - | 27 W/m² | - |
| 1777547191 | 11.11° C | 99% | 1007.6 hPa | 0 mm | - | 12 W/m² | - |
| 1777546590 | 10.56° C | 99% | 1007.7 hPa | 0 mm | - | 15 W/m² | - |
| 1777545990 | 10° C | 99% | 1007.7 hPa | 0 mm | - | 12 W/m² | - |
| 1777545389 | 10° C | 99% | 1008.1 hPa | 0 mm | - | 6 W/m² | - |
| 1777544789 | 10° C | 99% | 1008 hPa | 0 mm | - | 4 W/m² | - |
| 1777544187 | 10° C | 99% | 1008 hPa | 0 mm | - | 2 W/m² | - |
| 1777543586 | 10° C | 99% | 1007.7 hPa | 0 mm | - | 1 W/m² | - |
| 1777542984 | 10.56° C | 99% | 1007.7 hPa | 0 mm | - | 0 W/m² | - |
| 1777542383 | 10.56° C | 99% | 1007.6 hPa | 0 mm | - | 0 W/m² | - |
| 1777541783 | 11.11° C | 99% | 1007.7 hPa | 0 mm | - | 0 W/m² | - |
| 1777541182 | 11.11° C | 99% | 1007.7 hPa | 0 mm | - | 0 W/m² | - |
| 1777540576 | 11.11° C | 99% | 1007.7 hPa | 0 mm | - | 0 W/m² | - |
* Rain latest hour (hover to see other rain measurements)
** Current wind speed in m/s (hover to see current wind gust speed)